CZ-3B DEB, 40845

Orbit data source: Space-Track

CZ-3B DEB, 40845 is space debris in HEO originally from a launch on Mon, 19 Dec 2011 UTC launched from the Xichang Space Center, China (XSC). Debris objects in space refer to the collection of defunct objects orbiting the Earth. Examples of debris include non-operational satellites, rocket bodies, and fragments generated from explosions, collisions, or faulty payload assembly.

Loading next visibility...
CZ-3B DEB details
Identifier
40845, 2011-077AA
Orbit
HEO
Last TLE update1 day ago
Origin
Flag of CNCASC (CN / PRC)
ManufacturerCALT
MissionSpacecraft
Bus & MotorUnknown
MassUnknown
Launch date (UTC)
2011-12-19 (13 years ago)
Launch vehicleUnknown
Launch site
Xichang Space Center, China (XSC)
Object type
Payload
Rocket body
Debris
Shape & HBRUnknown
Radar Cross SectionMedium (>0.1 m² and <1 m²)

Expand to show TLE details & history

TLE from 1 day ago
0 CZ-3B DEB
1 40845U 11077AA  24360.01988031  .00001705  00000-0  33903-2 0  9995
2 40845  22.3945 316.5228 7437134 234.1137  33.1126  2.01764662 81318
Epoch: 2024-12-25T00:28Z
Definitive object data (Epoch: 2024-12-25T00:28:37.658Z)
Latitude0.00003°
Longitude-144.65942°
Altitude14,617.885 km
Speed4.785 km/s
True Right ascension21h 06m 04s
True Declination0° 00' 00"
Sunlit
Object was in daylight at TLE epoch
Visualization TLE readout
Latitude-17.02101°
Longitude82.46828°
Altitude447.41 km
Speed10.087 km/s
Apparent Right ascension15h 18m 38s
Apparent Declination-62° 34' 23"
Sunlit
Object is in daylight
Visualization observer readout
Local Sidereal Time10:24:36
Azimuth149.99° SSE
Elevation-27.986°
Doppler factor1
Orbital elements
Apogee altitude39,759.149 km
Perigee altitude403.005 km
Semi-major axis26,459.214 km
Eccentricity0.7437134
Inclination22.3945°
RAAN316.5228°
Arg. of periapsis234.1137°
True anomaly126.14753°
Mean anomaly33.1126°
Eccentric anomaly74.09243°
Mean motion0.50429 °/min
BSTAR0.0033903
Orbital period713.88 mins
Loading maneuver chart data...
Loading historical data...
Loading historical data...
Loading historical data...
Loading historical data...
Loading historical data...
Loading historical data...
Loading historical data...

CZ-3B DEB Visibility forecast

Observer location: undefined°, undefined

Span
Click to sort rows by Start time (UTC) header in descending order
Start Az.
Max El. time (UTC)
Max El. Az.
Max El.
End time (UTC)
End Az.
576 mins2024-12-26 23:45:18.904Z230.947° WSW2024-12-27 02:00:18.904Z236.565° WSW33.803°2024-12-27 09:21:18.904Z279.327° WNW
46 mins2024-12-27 09:40:18.904Z276.55° WNW2024-12-27 10:16:18.904Z259.001° W11.099°2024-12-27 10:26:18.904Z244.543° WSW
|